This is the latest recevied weather packets stored in our database for station/object KF7SOJ. If no packets are shown the sender has not sent any weather packets the latest 10 day(s).
| Time | Temp. | Humidity | Pressure | Rain* | Wind** | Luminosity | Snow |
|---|---|---|---|---|---|---|---|
| 1777581245 | 15.56° C | 26% | 936.7 hPa | 0 mm | - | 936 W/m² | - |
| 1777580945 | 16.11° C | 25% | 936.6 hPa | 0 mm | - | 913 W/m² | - |
| 1777580639 | 15.56° C | 26% | 936.8 hPa | 0 mm | - | 912 W/m² | - |
| 1777580335 | 15.56° C | 26% | 936.7 hPa | 0 mm | - | 917 W/m² | - |
| 1777580032 | 15.56° C | 24% | 936.8 hPa | 0 mm | - | 935 W/m² | - |
| 1777579728 | 15.56° C | 25% | 936.9 hPa | 0 mm | - | 931 W/m² | - |
| 1777579426 | 15.56° C | 26% | 936.9 hPa | 0 mm | - | 933 W/m² | - |
| 1777579122 | 15.56° C | 27% | 936.9 hPa | 0 mm | - | 939 W/m² | - |
| 1777578821 | 15.56° C | 24% | 937 hPa | 0 mm | - | 938 W/m² | - |
| 1777578517 | 15.56° C | 27% | 936.9 hPa | 0 mm | - | 948 W/m² | - |
| 1777578212 | 15.56° C | 25% | 937 hPa | 0 mm | - | 945 W/m² | - |
| 1777577907 | 15° C | 27% | 937 hPa | 0 mm | - | 947 W/m² | - |
| 1777577604 | 15° C | 27% | 937 hPa | 0 mm | - | 945 W/m² | - |
| 1777577301 | 15° C | 25% | 937.1 hPa | 0 mm | - | 954 W/m² | - |
| 1777576997 | 15.56° C | 26% | 937.1 hPa | 0 mm | - | 952 W/m² | - |
| 1777576694 | 15° C | 27% | 937.2 hPa | 0 mm | - | 956 W/m² | - |
| 1777576392 | 15° C | 28% | 937.2 hPa | 0 mm | - | 960 W/m² | - |
| 1777576089 | 15° C | 26% | 937.1 hPa | 0 mm | - | 974 W/m² | - |
| 1777575785 | 15° C | 30% | 937.2 hPa | 0 mm | - | 917 W/m² | - |
| 1777575481 | 14.44° C | 25% | 937.4 hPa | 0 mm | - | 820 W/m² | - |
| 1777575177 | 15° C | 28% | 937.3 hPa | 0 mm | - | 977 W/m² | - |
| 1777574874 | 15° C | 24% | 937.5 hPa | 0 mm | - | 980 W/m² | - |
| 1777574571 | 15° C | 26% | 937.4 hPa | 0 mm | - | 966 W/m² | - |
| 1777574267 | 14.44° C | 28% | 937.4 hPa | 0 mm | - | 955 W/m² | - |
| 1777573962 | 14.44° C | 28% | 937.6 hPa | 0 mm | - | 910 W/m² | - |
* Rain latest hour (hover to see other rain measurements)
** Current wind speed in m/s (hover to see current wind gust speed)